Wind_Speed
36 36 35 35 35 35 35 35 34 33 33 33 33 32 32 32 31 31 31 31 31 32 31 31 32 32 32 32 33 33 33 33 32 32 33 33 33 33 32 32 32 32 31
38 37 37 36 36 36 36 36 35 35 35 34 34 34 34 33 33 33 33 33 33 32 32 32 32 33 33 34 35 35 34 34 35 35 35 35 36 35 35 34 34 34 33
41 40 39 38 37 37 37 37 37 37 36 36 36 36 35 35 35 34 33 33 33 33 33 33 34 35 35 36 36 36 36 37 38 38 38 38 38 38 37 37 37 37 36
43 42 41 41 40 39 39 38 37 38 38 37 37 37 37 37 36 35 35 34 35 35 35 35 36 37 37 37 38 38 39 39 40 40 41 41 41 40 40 40 40 39 38
45 44 43 42 42 41 41 40 39 39 39 39 38 38 38 38 37 37 37 37 37 37 37 38 39 39 39 39 40 40 41 41 42 42 42 43 43 43 43 43 42 41 40
47 46 45 45 44 43 43 42 41 41 40 40 40 39 38 38 38 38 39 39 39 39 39 41 41 41 42 42 42 43 43 44 44 45 45 45 45 45 46 45 44 43 42
48 47 47 45 45 45 44 43 43 42 41 40 40 40 39 40 40 40 40 40 41 41 42 41 42 42 43 43 44 45 46 46 46 47 47 47 47 47 47 47 45 44 43
47 46 45 45 44 44 44 44 43 42 40 40 40 40 40 41 41 41 41 41 42 43 43 42 42 43 44 45 45 46 47 48 49 49 48 49 49 48 47 47 46 44 43
46 45 45 44 44 44 44 44 44 42 41 40 40 41 41 41 41 41 42 42 42 42 43 44 44 45 45 46 46 47 47 48 49 49 49 49 48 47 46 46 45 44 42
44 44 43 43 44 43 44 44 43 42 42 42 42 43 43 43 43 42 42 43 42 42 43 44 45 45 46 46 47 48 49 49 50 50 50 50 48 47 46 45 44 43 42
44 43 43 43 44 44 44 43 43 42 42 43 43 44 44 43 43 43 42 41 41 42 42 43 45 45 45 46 47 49 50 49 49 49 48 48 47 45 45 44 42 40 40
43 43 42 41 42 43 43 43 43 43 43 43 43 43 43 43 43 43 42 42 41 41 42 43 45 45 45 46 47 49 49 48 48 47 46 46 46 45 45 43 41 39 38
41 41 40 39 40 41 41 42 43 43 42 42 42 42 42 42 42 43 43 43 43 43 43 44 45 46 47 47 48 48 49 48 47 46 45 45 45 45 44 42 41 38 38
36 37 37 37 38 38 39 39 39 40 40 41 41 41 42 42 43 43 45 45 45 45 46 46 47 48 49 48 48 49 49 48 47 46 45 45 45 45 44 41 39 38 38
32 33 33 34 34 35 35 36 37 37 38 39 40 40 42 43 43 44 45 46 46 47 47 47 48 49 50 50 49 49 49 49 48 47 46 45 44 43 42 40 39 38 37
27 29 30 31 32 32 32 33 34 35 36 38 39 40 41 42 43 44 45 46 47 47 47 47 48 49 50 50 49 48 49 49 48 47 46 45 43 41 40 39 37 36 35
23 24 25 26 27 28 30 31 32 33 36 38 39 40 42 42 44 45 45 46 46 47 47 46 47 48 48 48 48 48 47 46 46 46 45 44 43 41 39 37 36 35 34
21 22 23 24 26 27 28 29 31 32 34 36 37 39 40 41 43 43 44 45 46 46 46 46 46 46 47 46 46 46 45 43 43 44 43 42 41 40 38 35 35 34 34
20 21 21 22 24 26 27 29 30 32 33 34 35 36 38 40 41 42 43 43 44 45 46 46 46 46 46 44 44 44 44 43 42 42 42 41 40 38 37 36 34 34 33
20 21 22 23 24 26 27 28 29 31 32 34 34 36 37 38 40 41 41 42 43 44 45 45 45 45 44 43 43 42 42 42 41 40 39 38 36 35 35 35 34 34 32
20 21 22 23 25 26 27 29 30 31 32 34 35 37 38 38 39 39 40 41 43 43 43 43 44 44 43 43 43 42 42 41 40 39 37 36 35 34 34 33 32 31 31
21 22 23 24 25 27 28 29 31 32 34 35 36 37 38 39 39 41 41 42 42 42 42 43 43 42 42 41 41 41 40 38 38 37 36 35 33 33 32 31 30 30 29
21 23 24 25 26 27 28 30 32 33 34 35 36 37 38 39 40 40 40 41 41 41 42 42 42 40 39 39 39 38 37 38 36 34 33 32 31 30 30 28 28 27 27
22 23 24 25 26 28 29 30 31 32 33 34 36 37 38 38 39 39 39 39 39 39 40 40 39 39 38 37 37 36 36 35 33 31 29 28 27 26 28 28 26 25 25
22 23 24 26 27 28 29 31 32 33 34 35 37 38 37 36 36 37 37 37 38 38 38 38 38 37 37 37 37 35 34 34 31 29 27 27 26 26 26 27 27 25 24
24 24 25 27 28 29 30 31 33 34 35 35 36 36 35 34 34 35 36 37 38 38 38 39 38 37 37 37 36 35 33 31 30 28 26 25 25 25 25 24 24 24 24
Wind_Direction
257 258 260 263 262 262 262 263 264 264 265 266 267 269 271 274 276 278 278 279 281 282 282 283 283 285 286 288 289 290 291 292 292 294 295 296 297 299 300 301 300 299 300
257 258 260 262 263 263 263 263 264 264 264 266 269 270 271 273 276 277 278 279 280 281 282 283 283 284 285 288 289 289 289 290 290 291 292 294 295 296 297 299 299 298 298
256 258 260 262 263 262 263 263 264 265 265 266 268 269 270 273 275 277 278 279 280 281 281 282 283 284 286 287 287 288 288 289 289 290 291 292 293 294 295 296 297 296 295
255 257 259 261 261 260 262 264 265 265 265 266 267 268 271 272 274 275 277 280 280 280 281 282 283 284 285 285 286 286 287 289 289 289 290 290 291 292 292 293 294 293 292
254 256 258 260 260 259 261 263 264 265 265 265 267 269 271 272 272 274 276 279 281 281 282 283 284 284 285 285 286 286 287 288 289 289 289 290 289 290 290 290 291 290 289
254 255 256 258 259 259 260 263 264 265 265 265 265 267 269 271 273 275 277 279 281 281 283 284 285 284 285 285 285 285 286 287 288 288 289 289 289 289 289 288 288 288 287
253 255 256 258 258 258 259 262 263 264 264 265 265 266 269 272 274 276 278 279 281 283 283 283 284 284 285 284 284 284 285 286 287 287 287 288 289 289 289 287 287 286 286
253 255 256 257 257 256 257 261 263 262 262 263 265 267 269 272 275 276 278 280 282 283 282 283 284 284 285 285 285 286 286 286 287 286 287 287 288 287 287 286 285 285 286
253 253 255 256 256 255 259 261 261 260 262 264 265 267 270 273 275 276 279 281 282 283 283 283 284 284 285 285 286 286 287 288 287 287 287 287 287 287 286 286 284 284 284
253 254 255 255 256 256 258 261 261 260 262 264 267 269 271 274 276 278 280 280 281 282 283 283 284 284 284 286 287 288 289 289 289 288 288 287 286 286 286 286 284 283 282
252 253 253 255 256 256 258 259 260 261 264 266 267 270 273 275 277 280 280 280 282 284 285 286 285 285 286 287 287 288 289 289 290 290 289 287 285 285 285 284 281 281 280
253 254 255 257 257 256 258 258 260 264 265 267 269 271 273 275 277 279 281 281 282 284 287 288 288 288 288 288 289 289 290 290 290 289 288 287 286 285 283 281 278 279 279
253 253 256 259 259 258 258 259 261 263 264 268 271 272 274 277 278 279 281 282 283 284 285 286 288 288 288 289 289 289 290 290 289 288 288 288 286 284 282 279 276 276 276
254 255 258 258 258 258 259 261 262 265 267 268 271 273 274 277 279 279 281 282 283 284 285 286 287 289 289 289 289 289 289 289 288 287 287 287 286 284 280 277 275 273 273
254 255 255 256 257 259 262 264 266 266 268 269 272 274 274 276 277 280 283 284 284 285 286 287 287 288 289 288 289 288 288 288 286 286 286 286 285 282 279 275 274 273 270
253 255 255 258 259 260 264 265 266 267 269 271 272 275 277 278 279 282 284 285 286 288 288 287 288 289 289 289 288 288 288 287 285 284 285 285 284 280 276 275 273 271 269
252 256 260 262 261 263 265 266 269 272 273 273 274 276 279 279 280 282 283 286 288 289 289 289 290 290 290 291 289 289 289 287 286 284 285 284 281 278 274 273 270 267 265
258 261 264 265 267 269 270 271 274 276 278 278 279 279 280 280 282 283 285 287 288 289 289 290 291 291 290 291 291 290 289 287 287 285 284 282 280 277 273 269 267 265 261
265 269 270 272 273 273 275 278 280 281 282 284 284 284 283 282 284 285 285 288 289 289 289 290 291 291 290 292 291 290 290 289 289 288 285 282 278 274 271 269 266 263 258
270 273 276 278 278 278 278 281 284 285 286 287 288 288 287 286 287 286 286 289 290 290 289 289 291 292 291 291 291 290 289 289 290 290 285 282 277 271 270 269 266 262 257
276 281 284 284 283 284 284 284 285 287 289 289 290 291 290 289 289 288 287 289 291 291 290 291 292 293 292 291 291 291 290 290 289 288 285 280 276 271 269 266 262 260 257
283 286 288 289 288 288 288 287 288 290 292 293 293 293 292 291 289 289 290 290 291 291 291 292 293 293 294 294 294 293 293 293 291 288 284 280 274 268 265 261 259 258 257
289 289 290 291 291 290 290 290 290 291 292 294 294 294 293 292 291 289 289 290 291 291 291 292 291 291 292 293 293 293 292 293 293 291 285 281 274 267 263 258 254 254 252
293 293 294 295 294 293 292 292 293 295 294 296 297 297 298 296 295 292 290 290 291 292 293 293 292 291 291 292 293 293 292 292 290 288 285 280 274 267 262 258 255 253 249
295 296 296 298 298 297 295 295 296 297 298 299 300 301 300 300 298 296 293 291 292 293 294 294 294 292 291 291 292 292 292 290 286 285 283 279 274 269 263 260 256 254 251
297 297 297 298 300 300 299 298 298 299 301 302 303 303 301 300 301 300 297 294 294 294 294 295 294 292 292 292 292 292 291 287 285 283 280 279 275 270 264 259 255 251 246
Height
5814 5816 5818 5819 5821 5822 5823 5825 5825 5826 5827 5828 5828 5829 5829 5829 5829 5829 5828 5828 5827 5826 5825 5824 5823 5822 5820 5819 5817 5816 5815 5813 5811 5809 5808 5806 5804 5802 5801 5799 5797 5795 5793
5807 5809 5811 5812 5814 5815 5816 5817 5819 5819 5820 5821 5822 5822 5823 5823 5823 5822 5822 5821 5821 5820 5819 5817 5816 5815 5813 5812 5811 5809 5807 5806 5804 5802 5801 5799 5797 5795 5793 5791 5789 5787 5785
5799 5801 5804 5805 5807 5808 5809 5810 5811 5812 5814 5814 5815 5815 5816 5816 5816 5815 5815 5814 5814 5813 5812 5811 5809 5808 5806 5805 5803 5801 5799 5798 5796 5794 5793 5791 5789 5787 5785 5783 5781 5779 5777
5791 5793 5795 5797 5799 5800 5801 5803 5804 5805 5806 5807 5808 5808 5808 5808 5808 5808 5808 5807 5806 5806 5805 5803 5802 5800 5798 5796 5794 5793 5791 5789 5787 5785 5783 5782 5780 5778 5776 5774 5772 5770 5768
5782 5784 5786 5788 5790 5792 5793 5795 5796 5797 5798 5799 5800 5800 5800 5800 5800 5800 5800 5799 5798 5798 5796 5795 5793 5791 5789 5787 5785 5783 5781 5779 5777 5775 5773 5771 5769 5768 5766 5764 5762 5760 5758
5772 5775 5777 5779 5781 5783 5785 5786 5788 5789 5790 5791 5792 5792 5792 5793 5792 5792 5792 5791 5790 5789 5787 5786 5784 5782 5780 5778 5775 5773 5771 5769 5766 5764 5762 5760 5758 5756 5754 5752 5751 5749 5747
5762 5765 5768 5770 5772 5774 5776 5778 5779 5780 5781 5782 5783 5784 5784 5784 5784 5784 5783 5782 5781 5780 5778 5776 5774 5772 5770 5767 5765 5762 5760 5757 5755 5753 5751 5749 5746 5744 5742 5740 5738 5736 5735
5753 5756 5759 5761 5763 5765 5767 5769 5770 5771 5772 5773 5774 5774 5775 5776 5776 5775 5774 5773 5771 5770 5768 5766 5764 5761 5759 5756 5754 5751 5748 5745 5743 5740 5738 5736 5733 5731 5728 5727 5725 5723 5722
5743 5746 5749 5752 5754 5756 5758 5760 5761 5762 5763 5764 5764 5765 5765 5766 5767 5767 5765 5763 5761 5759 5757 5755 5753 5750 5748 5745 5742 5739 5736 5732 5729 5727 5724 5721 5719 5716 5714 5713 5711 5710 5709
5733 5736 5739 5742 5745 5747 5749 5750 5751 5753 5754 5754 5755 5755 5756 5755 5755 5756 5755 5753 5751 5749 5747 5745 5742 5739 5736 5733 5730 5726 5723 5719 5716 5713 5710 5707 5705 5703 5701 5699 5697 5697 5696
5723 5726 5729 5732 5735 5737 5739 5741 5742 5743 5744 5744 5745 5746 5745 5745 5744 5743 5744 5743 5741 5739 5736 5733 5730 5728 5724 5721 5718 5714 5710 5706 5703 5699 5695 5692 5690 5689 5687 5685 5684 5684 5684
5714 5718 5720 5722 5725 5727 5728 5730 5731 5732 5733 5734 5735 5735 5735 5734 5734 5733 5732 5732 5730 5728 5725 5722 5719 5716 5713 5710 5706 5702 5697 5693 5690 5686 5682 5679 5677 5675 5674 5673 5673 5673 5672
5706 5709 5711 5713 5715 5717 5718 5719 5721 5722 5723 5723 5724 5724 5724 5724 5723 5722 5720 5720 5718 5718 5715 5712 5708 5704 5701 5697 5693 5689 5685 5681 5677 5674 5670 5667 5664 5662 5661 5660 5661 5661 5661
5697 5699 5702 5704 5705 5707 5708 5709 5710 5711 5712 5712 5713 5713 5713 5713 5711 5711 5709 5708 5707 5706 5703 5700 5697 5693 5689 5685 5681 5676 5673 5669 5665 5662 5659 5656 5652 5650 5648 5648 5649 5650 5649
5689 5691 5693 5694 5696 5697 5698 5699 5700 5701 5702 5702 5702 5702 5702 5701 5700 5699 5697 5695 5694 5692 5691 5688 5685 5681 5676 5672 5667 5663 5660 5656 5652 5649 5647 5643 5640 5638 5636 5636 5637 5637 5638
5682 5684 5685 5686 5687 5688 5689 5690 5690 5691 5691 5692 5692 5691 5690 5689 5688 5687 5685 5683 5680 5678 5676 5675 5671 5667 5662 5658 5654 5650 5646 5643 5640 5637 5634 5631 5628 5626 5625 5625 5625 5626 5627
5675 5676 5677 5678 5679 5680 5680 5681 5681 5681 5682 5682 5681 5680 5679 5678 5676 5675 5673 5670 5667 5664 5661 5660 5656 5653 5648 5645 5641 5637 5633 5629 5626 5624 5621 5618 5616 5615 5614 5613 5614 5615 5616
5669 5670 5671 5671 5671 5671 5672 5672 5672 5672 5672 5671 5669 5668 5667 5666 5664 5662 5660 5657 5654 5650 5647 5645 5643 5639 5635 5632 5628 5623 5620 5616 5613 5610 5608 5605 5604 5603 5602 5602 5603 5604 5606
5664 5664 5664 5664 5663 5663 5664 5664 5664 5663 5661 5660 5658 5657 5656 5654 5652 5650 5647 5644 5641 5637 5634 5631 5629 5625 5622 5619 5615 5610 5607 5603 5600 5597 5594 5593 5592 5591 5591 5592 5593 5594 5597
5658 5658 5658 5657 5656 5656 5656 5655 5655 5653 5652 5650 5648 5646 5644 5642 5640 5637 5635 5632 5629 5625 5622 5619 5615 5612 5609 5605 5601 5598 5594 5592 5588 5585 5582 5581 5580 5581 5581 5582 5583 5585 5587
5652 5651 5651 5650 5649 5648 5647 5647 5646 5644 5643 5640 5638 5636 5633 5631 5628 5625 5623 5620 5617 5613 5610 5607 5603 5600 5597 5593 5590 5586 5583 5580 5577 5574 5571 5570 5570 5571 5571 5572 5573 5575 5578
5646 5645 5644 5643 5641 5640 5639 5638 5637 5635 5633 5631 5628 5625 5622 5620 5617 5614 5611 5608 5605 5601 5598 5595 5592 5589 5586 5582 5578 5575 5571 5569 5567 5565 5560 5560 5559 5559 5561 5562 5564 5567 5569
5639 5638 5637 5636 5634 5632 5631 5630 5628 5626 5624 5621 5618 5615 5612 5609 5605 5602 5599 5596 5593 5589 5587 5584 5580 5577 5575 5571 5568 5565 5561 5558 5555 5553 5550 5549 5549 5549 5550 5553 5555 5558 5561
5633 5632 5631 5629 5627 5625 5624 5622 5620 5617 5614 5611 5608 5605 5601 5597 5594 5591 5588 5585 5582 5579 5576 5573 5570 5567 5564 5560 5557 5554 5551 5548 5545 5543 5541 5540 5540 5541 5542 5545 5547 5550 5553
5628 5626 5625 5623 5620 5618 5616 5614 5611 5608 5605 5602 5599 5595 5591 5588 5584 5580 5578 5575 5572 5569 5566 5562 5558 5556 5553 5550 5546 5543 5541 5538 5537 5535 5534 5533 5534 5534 5535 5537 5539 5542 5545
5622 5620 5618 5616 5614 5611 5608 5605 5603 5600 5597 5594 5590 5586 5582 5578 5574 5570 5567 5564 5562 5559 5556 5552 5548 5545 5542 5539 5536 5533 5531 5529 5528 5528 5527 5527 5526 5527 5529 5531 5533 5536 5539